This is the latest recevied weather packets stored in our database for station/object W1GK. If no packets are shown the sender has not sent any weather packets the latest 10 day(s).
| Time | Temp. | Humidity | Pressure | Rain* | Wind** | Luminosity | Snow |
|---|---|---|---|---|---|---|---|
| 1778140799 | 21.67° C | 25% | 1017 hPa | 0 mm | - | 0 W/m² | - |
| 1778140199 | 21.67° C | 25% | 1017.1 hPa | 0 mm | - | 0 W/m² | - |
| 1778139596 | 21.67° C | 25% | 1016.8 hPa | 0 mm | - | 0 W/m² | - |
| 1778138998 | 21.11° C | 26% | 1016.7 hPa | 0 mm | - | 0 W/m² | - |
| 1778138397 | 21.67° C | 23% | 1016.5 hPa | 0 mm | - | 0 W/m² | - |
| 1778137797 | 21.67° C | 23% | 1016.4 hPa | 0 mm | - | 0 W/m² | - |
| 1778137200 | 21.67° C | 23% | 1016.4 hPa | 0 mm | - | 0 W/m² | - |
| 1778136599 | 21.67° C | 24% | 1016.5 hPa | 0 mm | - | 0 W/m² | - |
| 1778135999 | 22.22° C | 24% | 1016.4 hPa | 0 mm | - | 0 W/m² | - |
| 1778135399 | 22.78° C | 24% | 1016.3 hPa | 0 mm | - | 0 W/m² | - |
| 1778134800 | 22.78° C | 24% | 1016.2 hPa | 0 mm | - | 0 W/m² | - |
| 1778134198 | 22.78° C | 21% | 1016.1 hPa | 0 mm | - | 0 W/m² | - |
| 1778133603 | 23.33° C | 21% | 1015.9 hPa | 0 mm | - | 0 W/m² | - |
| 1778133001 | 23.33° C | 21% | 1015.8 hPa | 0 mm | - | 0 W/m² | - |
| 1778132400 | 23.33° C | 20% | 1015.8 hPa | 0 mm | - | 0 W/m² | - |
| 1778131799 | 23.89° C | 20% | 1015.7 hPa | 0 mm | - | 0 W/m² | - |
| 1778131199 | 23.89° C | 20% | 1015.6 hPa | 0 mm | - | 0 W/m² | - |
| 1778130601 | 23.89° C | 20% | 1015.6 hPa | 0 mm | - | 0 W/m² | - |
| 1778130000 | 24.44° C | 20% | 1015.6 hPa | 0 mm | - | 0 W/m² | - |
| 1778129398 | 24.44° C | 20% | 1015.5 hPa | 0 mm | - | 0 W/m² | - |
| 1778128798 | 24.44° C | 20% | 1015.5 hPa | 0 mm | - | 0 W/m² | - |
| 1778128198 | 24.44° C | 20% | 1015.3 hPa | 0 mm | - | 0 W/m² | - |
| 1778127598 | 25° C | 20% | 1015.3 hPa | 0 mm | - | 0 W/m² | - |
| 1778126998 | 25° C | 19% | 1015.2 hPa | 0 mm | - | 0 W/m² | - |
| 1778126398 | 25.56° C | 19% | 1015.1 hPa | 0 mm | - | 0 W/m² | - |
* Rain latest hour (hover to see other rain measurements)
** Current wind speed in m/s (hover to see current wind gust speed)